Burnet, TX

1:06 PM CDT on July 28, 2017 (GMT -0500)
Burnet Municipal-Craddock

Weather History for KBMQ - December, 2013

Change the Weather History Date:

Thursday, December 19, 2013

  Actual Average Record
Temperature  
Mean Temperature 62 °F -  
Max Temperature 69 °F 55 °F 79 °F (2012)
Min Temperature 54 °F 34 °F 16 °F (1996)
Degree Days  
Heating Degree Days 4    
Growing Degree Days 12 (Base 50)    
Moisture  
Dew Point 55 °F    
Average Humidity 78    
Maximum Humidity 93    
Minimum Humidity 63    
Precipitation  
Precipitation 0.00 in - - ()
Sea Level Pressure  
Sea Level Pressure 29.90 in    
Wind  
Wind Speed 12 mph (South)    
Max Wind Speed 24 mph    
Max Gust Speed 32 mph    
Visibility 10 miles    
Events      
Averages and records for this station are not official NWS values.
T = Trace of Precipitation, MM = Missing Value Source: NWS Daily Summary

Daily Weather History Graph

Daily Weather History Graph

Search for Another Location

Airport or City:

Trip Planner

Search our weather history database for the weather conditions in past years. The results will help you decide how hot, cold, wet, or windy it might be!

Date:

Astronomy

Dec. 19, 2013 Rise Set
Actual Time 7:25 AM CST 5:35 PM CST
Civil Twilight 6:58 AM CST 6:01 PM CST
Nautical Twilight 6:28 AM CST 6:31 PM CST
Astronomical Twilight 5:59 AM CST 7:01 PM CST
Moon 7:53 PM CST (12/19) 8:52 AM CST (12/19)
Length of Visible Light 11h 02m
Length of Day
10h 09m
Waning Gibbous, 95% of the Moon is Illuminated
Dec 19
Waning Gibbous
Dec 25
Last Quarter
Jan 1
New
Jan 7
First Quarter
Jan 15
Full

Hourly Weather History & Observations

Time (CST) Temp. Dew Point Humidity Pressure Visibility Wind Dir Wind Speed Gust Speed Precip Events Conditions
12:06 AM 54.0 °F 48.9 °F 83% 30.06 in 10.0 mi South 9.2 mph - N/A   Scattered Clouds
12:20 AM 54.0 °F 48.9 °F 83% 30.05 in 10.0 mi South 10.4 mph - N/A   Mostly Cloudy
12:53 AM 55.0 °F 48.9 °F 80% 30.01 in 10.0 mi South 10.4 mph 19.6 mph N/A   Overcast
1:53 AM 55.0 °F 50.0 °F 83% 29.99 in 10.0 mi South 9.2 mph - N/A   Overcast
2:53 AM 55.9 °F 51.1 °F 84% 29.98 in 10.0 mi South 13.8 mph - N/A   Overcast
3:53 AM 55.9 °F 52.0 °F 87% 29.97 in 10.0 mi South 8.1 mph - N/A   Overcast
4:53 AM 57.0 °F 53.1 °F 87% 29.95 in 10.0 mi South 12.7 mph - N/A   Overcast
5:53 AM 57.9 °F 54.0 °F 87% 29.93 in 10.0 mi South 12.7 mph 18.4 mph N/A   Overcast
6:06 AM 59.0 °F 54.0 °F 83% 29.96 in 10.0 mi South 12.7 mph 20.7 mph N/A   Overcast
6:53 AM 59.0 °F 55.0 °F 87% 29.94 in 10.0 mi South 11.5 mph 23.0 mph N/A   Overcast
7:07 AM 59.0 °F 55.0 °F 87% 29.96 in 10.0 mi South 16.1 mph 23.0 mph N/A   Overcast
7:53 AM 60.1 °F 55.0 °F 83% 29.95 in 9.0 mi South 13.8 mph 19.6 mph N/A   Overcast
8:06 AM 60.1 °F 55.0 °F 83% 29.98 in 9.0 mi South 12.7 mph 20.7 mph N/A   Overcast
8:53 AM 61.0 °F 55.0 °F 81% 29.95 in 10.0 mi South 15.0 mph 20.7 mph N/A   Overcast
9:53 AM 63.0 °F 55.9 °F 78% 29.94 in 10.0 mi South 18.4 mph 26.5 mph N/A   Overcast
10:53 AM 66.0 °F 57.0 °F 73% 29.93 in 10.0 mi South 20.7 mph 31.1 mph N/A   Overcast
11:53 AM 69.1 °F 55.9 °F 63% 29.89 in 10.0 mi South 24.2 mph 32.2 mph N/A   Mostly Cloudy
12:34 PM 68.0 °F 55.9 °F 65% 29.89 in 10.0 mi South 20.7 mph 31.1 mph N/A   Mostly Cloudy
12:53 PM 69.1 °F 55.9 °F 63% 29.86 in 10.0 mi SSW 20.7 mph 29.9 mph N/A   Overcast
1:39 PM 68.0 °F 55.9 °F 65% 29.87 in 10.0 mi South 15.0 mph 25.3 mph N/A   Overcast
1:53 PM 68.0 °F 55.9 °F 65% 29.83 in 10.0 mi South 17.3 mph 26.5 mph N/A   Overcast
2:53 PM 69.1 °F 55.9 °F 63% 29.81 in 10.0 mi South 15.0 mph 28.8 mph N/A   Mostly Cloudy
3:02 PM 69.1 °F 55.9 °F 63% 29.84 in 10.0 mi South 18.4 mph 28.8 mph N/A   Mostly Cloudy
3:53 PM 69.1 °F 55.9 °F 63% 29.79 in 10.0 mi South 16.1 mph 25.3 mph N/A   Clear
4:53 PM 69.1 °F 55.9 °F 63% 29.80 in 10.0 mi South 9.2 mph - N/A   Clear
5:53 PM 66.0 °F 57.0 °F 73% 29.81 in 10.0 mi SSW 4.6 mph - N/A   Clear
6:53 PM 64.0 °F 57.0 °F 78% 29.82 in 10.0 mi South 3.5 mph - N/A   Clear
7:53 PM 62.1 °F 55.9 °F 80% 29.82 in 10.0 mi South 5.8 mph - N/A   Clear
8:53 PM 64.0 °F 59.0 °F 84% 29.82 in 10.0 mi South 11.5 mph 18.4 mph N/A   Clear
9:53 PM 63.0 °F 59.0 °F 87% 29.82 in 10.0 mi South 9.2 mph - N/A   Clear
10:53 PM 62.1 °F 60.1 °F 93% 29.81 in 10.0 mi South 11.5 mph 19.6 mph N/A   Clear
11:17 PM 62.1 °F 60.1 °F 93% 29.84 in 9.0 mi SSE 9.2 mph 18.4 mph N/A   Mostly Cloudy
11:53 PM 63.0 °F 60.1 °F 90% 29.81 in 9.0 mi South 10.4 mph - N/A   Overcast